User: anonymous   Login
Location: Ahausen
(50.4985°N, 8.2722°E)
Time: 14:41:20
(UTC+00:00)
Language:

Cosmos 1627 Rocket - Orbit

View from above orbital plane
View from above orbital plane
View from above satellite
View from above satellite

Ground track
Ground track

The orbit data is extracted from the following two-line orbital elements,

1 15506U 85011B   21206.91882770  .00000096  00000-0  82461-4 0  9995
2 15506  82.9182 264.8618 0036664 173.1160 359.9730 13.76217334831407
Epoch (UTC): 25 July 2021 22:03:06
Eccentricity: 0.0036664
inclination: 82.9182°
perigee height: 950 km
apogee height: 1004 km
right ascension of ascending node: 264.8618°
argument of perigee: 173.1160°
revolutions per day: 13.76217334
mean anomaly at epoch: 359.9730°
orbit number at epoch: 83140

The dashed part of the orbit path shows where the satellite is in the earth's shadow,  

DLR